Weather History for KOFF - June, 2013

Change the Weather History Date:

Monday, June 17, 2013

  Actual Average Record
Temperature  
Mean Temperature 75 °F -  
Max Temperature 88 °F 80 °F 91 °F (2012)
Min Temperature 63 °F 61 °F 50 °F (1999)
Cooling Degree Days 10    
Growing Degree Days 25 (Base 50)    
Moisture  
Dew Point 61 °F    
Average Humidity 69    
Maximum Humidity 100    
Minimum Humidity 34    
Precipitation  
Precipitation 0.00 in - - ()
Sea Level Pressure  
Sea Level Pressure 29.97 in    
Wind  
Wind Speed 4 mph (NNE)    
Max Wind Speed 8 mph    
Max Gust Speed -    
Visibility 10 miles    
Events      
Averages and records for this station are not official NWS values.
T = Trace of Precipitation, MM = Missing Value Source: NWS Daily Summary

Daily Weather History Graph

Daily Weather History Graph

Search for Another Location

Airport or City:

Trip Planner

Search our weather history database for the weather conditions in past years. The results will help you decide how hot, cold, wet, or windy it might be!

Date:

Astronomy

Jun. 17, 2013 Rise Set
Actual Time 5:50 AM CDT 8:58 PM CDT
Civil Twilight 5:16 AM CDT 9:32 PM CDT
Nautical Twilight 4:33 AM CDT 10:15 PM CDT
Astronomical Twilight 3:42 AM CDT 11:07 PM CDT
Moon 2:35 PM CDT (6/17) 1:29 AM CDT (6/17)
Length of Visible Light 16h 15m
Length of Day
15h 08m
First Quarter, 60% of the Moon is Illuminated
Jun 17
First Quarter
Jun 23
Full
Jun 29
Last Quarter
Jul 8
New
Jul 15
First Quarter

Hourly Weather History & Observations

Time (CDT) Temp. Heat Index Dew Point Humidity Pressure Visibility Wind Dir Wind Speed Gust Speed Precip Events Conditions
12:58 AM 68.7 °F - 66.0 °F 91% 29.94 in 10.0 mi NNE 4.6 mph - N/A   Clear
1:58 AM 66.2 °F - 65.8 °F 99% 29.95 in 9.0 mi Calm Calm - N/A   Clear
2:58 AM 66.9 °F - 64.2 °F 91% 29.94 in 10.0 mi South 1.2 mph - N/A   Clear
3:18 AM 68.0 °F - 64.4 °F 88% 29.96 in 9.0 mi SE 1.2 mph - N/A   Clear
3:33 AM 64.4 °F - 64.4 °F 100% 29.95 in 10.0 mi NNE 4.6 mph - N/A   Clear
3:58 AM 65.7 °F - 65.3 °F 99% 29.94 in 10.0 mi ENE 3.5 mph - N/A   Clear
4:18 AM 66.2 °F - 64.4 °F 94% 29.95 in 9.0 mi ESE 2.3 mph - N/A   Clear
4:23 AM 66.2 °F - 64.4 °F 94% 29.95 in 9.0 mi ENE 2.3 mph - N/A   Clear
4:33 AM 66.2 °F - 64.4 °F 94% 29.95 in 8.0 mi NE 3.5 mph - N/A   Clear
4:43 AM 66.2 °F - 64.4 °F 94% 29.95 in 10.0 mi ESE 2.3 mph - N/A   Clear
4:58 AM 65.8 °F - 64.2 °F 94% 29.94 in 10.0 mi ENE 2.3 mph - N/A   Clear
5:58 AM 64.2 °F - 63.9 °F 99% 29.97 in 10.0 mi Calm Calm - N/A   Clear
6:58 AM 63.1 °F - 63.0 °F 99% 29.99 in 10.0 mi NW 2.3 mph - N/A   Clear
7:58 AM 69.1 °F - 66.7 °F 92% 30.00 in 10.0 mi Calm Calm - N/A   Clear
8:58 AM 73.6 °F - 64.9 °F 74% 30.01 in 10.0 mi NW 4.6 mph - N/A   Clear
9:58 AM 78.3 °F - 61.2 °F 56% 30.01 in 10.0 mi NE 5.8 mph - N/A   Clear
10:58 AM 79.9 °F - 58.1 °F 47% 30.00 in 10.0 mi North 6.9 mph - N/A   Clear
11:58 AM 82.0 °F 82.2 °F 59.4 °F 46% 30.01 in 9.0 mi Variable 4.6 mph - N/A   Clear
12:58 PM 84.2 °F 83.5 °F 57.2 °F 40% 30.01 in 10.0 mi NW 5.8 mph - N/A   Clear
1:58 PM 85.8 °F 84.5 °F 56.1 °F 36% 29.99 in 10.0 mi NNW 8.1 mph - N/A   Clear
2:58 PM 86.7 °F 85.9 °F 58.1 °F 38% 29.97 in 10.0 mi Variable 2.3 mph - N/A   Clear
3:58 PM 87.8 °F 86.9 °F 58.3 °F 37% 29.97 in 10.0 mi NW 8.1 mph - N/A   Clear
4:58 PM 87.6 °F 86.3 °F 56.5 °F 35% 29.96 in 10.0 mi NW 6.9 mph - N/A   Clear
5:58 PM 87.4 °F 85.9 °F 56.1 °F 34% 29.93 in 9.0 mi North 4.6 mph - N/A   Clear
6:58 PM 86.2 °F 85.6 °F 59.5 °F 40% 29.93 in 10.0 mi North 4.6 mph - N/A   Clear
7:58 PM 83.1 °F 83.0 °F 58.8 °F 44% 29.93 in 10.0 mi North 5.8 mph - N/A   Clear
8:58 PM 78.8 °F - 57.9 °F 49% 29.94 in 10.0 mi North 6.9 mph - N/A   Clear
9:58 PM 77.2 °F - 57.2 °F 50% 29.97 in 10.0 mi North 6.9 mph - N/A   Clear
10:58 PM 74.7 °F - 56.8 °F 54% 29.99 in 10.0 mi North 8.1 mph - N/A   Clear
11:58 PM 72.0 °F - 56.3 °F 58% 29.99 in 10.0 mi NNE 5.8 mph - N/A   Clear